Home   Weather   Ojinaga   Past weeks

Flag for Mexico Past Weather in Ojinaga, Chihuahua, Mexico — Yesterday and Last 2 Weeks

Now
48 °F

Sunny.


Feels Like: 43 °F
Forecast: 29 / 54 °F
Wind: 12 mph from South

Location: Marfa Municipal Airport

Current Time: Dec 9, 2016 at 4:25:02 pm

Latest Report: Dec 9, 2016 at 3:56 pm


Visibility: 10 mi

Pressure: 30.31 "Hg (27.55 "Hg at 788m altitude)

Humidity: 59%

Dew Point: 34 °F

Location of OjinagaLocation

Past Weather in Ojinaga — Graph

°F

Ojinaga Temperature Yesterday

Maximum temperature yesterday: 38 °F (at 12:56 am)
Minimum temperature yesterday: 25 °F (at 6:56 pm)
Average temperature yesterday: 29 °F

High & Low Weather Summary for the Past Weeks

 TemperatureHumidityPressure
High71 °F (Nov 27, 1:56 pm)100% (Nov 26, 4:56 am)30.56 "Hg (Nov 26, 4:56 am)
Low21 °F (Dec 1, 5:56 am)16% (Nov 28, 3:56 pm)29.62 "Hg (Nov 28, 1:56 pm)
Average43 °F66%30.04 "Hg
* Reported Nov 24 2:56 pm — Dec 9 2:56 pm, Ojinaga, Weather by CustomWeather, © 2016

Note: Actual official high and low records may vary slightly from our data, if they occured in-between our weather recording intervals... More about our weather records

Advertising

Ojinaga Weather History for the Previous 24 Hours

Scroll right to see more
 ConditionsComfort  
Time TempWeatherWind HumidityBarometerVisibility
2:56 pm
Fri, Dec 9
50 °FSunny.8 mph57%30.32 "Hg10 mi
1:56 pm47 °FSunny.5 mph64%30.35 "Hg10 mi
12:56 pm43 °FPartly sunny.7 mph71%30.38 "Hg10 mi
11:56 am39 °FOvercast.8 mph79%30.44 "Hg10 mi
10:56 am37 °FLow clouds.8 mph86%30.48 "Hg10 mi
9:56 am34 °FLow clouds.7 mph92%30.51 "Hg9 mi
8:56 am32 °FIce fog.3 mph96%30.51 "Hg4 mi
7:56 am31 °FIce fog.No wind96%30.50 "Hg2 mi
6:56 am30 °FIce fog.No wind96%30.50 "Hg4 mi
5:56 am30 °FIce fog.No wind96%30.49 "Hg6 mi
4:56 am30 °FLow clouds.No wind96%30.49 "Hg8 mi
3:56 am30 °FOvercast.No wind92%30.48 "Hg10 mi
2:56 am29 °FOvercast.No wind93%30.50 "Hg10 mi
1:56 am29 °FOvercast.3 mph93%30.51 "Hg10 mi
12:56 am28 °FOvercast.3 mph93%30.51 "Hg10 mi
11:56 pm
Thu, Dec 8
27 °FOvercast.5 mph96%30.54 "Hg10 mi
10:56 pm27 °FLow clouds.5 mph92%30.55 "Hg10 mi
9:56 pm26 °FLow clouds.6 mph92%30.55 "Hg7 mi
8:56 pm25 °FLow clouds.8 mph96%30.56 "Hg8 mi
7:56 pm25 °FOvercast.7 mph92%30.55 "Hg9 mi
6:56 pm25 °FOvercast.10 mph92%30.54 "Hg10 mi
5:56 pm26 °FOvercast.12 mph92%30.52 "Hg10 mi
4:56 pm26 °FOvercast.15 mph92%30.48 "Hg9 mi
Weather by CustomWeather, © 2016

See weather overviewHow to use our weather pages